WetterOnline ( https://www.wetteronline.de )

Wetter aktuell Erzgebirge/West

Aktuelles Wetter: Carlsfeld (899m)

6-stündlich | Neueste Meldungen
Ortszeit Temperatur Wetter
Sa, 16.10. 8:00 2.9° C bedeckt
Sa, 16.10. 2:00 2.7° C bewölkt
Fr, 15.10. 20:00 4.8° C Sprühregen
Fr, 15.10. 14:00 8.9° C wolkig
Fr, 15.10. 8:00 5.9° C bedeckt
Fr, 15.10. 2:00 6.0° C bedeckt
Do, 14.10. 20:00 5.7° C Nebel
Do, 14.10. 14:00 5.8° C Sprühregen
Ortszeit Temperatur Wetter
Sa, 16.10. 11:00 5.8° C wolkig
Sa, 16.10. 10:40 5.6° C leicht bewölkt
Sa, 16.10. 10:30 3.8° C leicht bewölkt
Sa, 16.10. 10:20 3.8° C leicht bewölkt
Sa, 16.10. 10:10 4.3° C leicht bewölkt
Sa, 16.10. 10:00 4.5° C leicht bewölkt
Sa, 16.10. 9:50 4.5° C leicht bewölkt
Sa, 16.10. 9:30 4.4° C wolkig
Sa, 16.10. 9:00 3.8° C wolkig
Sa, 16.10. 8:30 2.8° C bewölkt
Sa, 16.10. 8:00 2.9° C bedeckt
Ortszeit Relative Feuchte Sichtweite
Sa, 16.10. 8:00 95% 25 km
Sa, 16.10. 2:00 96% 6 km
Fr, 15.10. 20:00 95% 24 km
Fr, 15.10. 14:00 78% 65 km
Fr, 15.10. 8:00 96% 10 km
Fr, 15.10. 2:00 97% 1.4 km
Do, 14.10. 20:00 98% 0.2 km
Do, 14.10. 14:00 97% 2.2 km
Ortszeit Relative Feuchte Sichtweite
Sa, 16.10. 11:00 77% 30 km
Sa, 16.10. 10:40 81% -
Sa, 16.10. 10:30 89% 21 km
Sa, 16.10. 10:20 89% -
Sa, 16.10. 10:10 89% -
Sa, 16.10. 10:00 82% 30 km
Sa, 16.10. 9:50 82% -
Sa, 16.10. 9:30 84% 29 km
Sa, 16.10. 9:00 94% 18 km
Sa, 16.10. 8:30 95% 8 km
Sa, 16.10. 8:00 95% 25 km
Ortszeit Niederschlagsmenge Niederschlagsart
Sa, 16.10. 8:00 0.1 l/m2 in 12 Std. -
Sa, 16.10. 2:00 0.1 l/m2 in 6 Std. Regen
Fr, 15.10. 20:00 1 l/m2 in 12 Std. Regen
Fr, 15.10. 14:00 0.0 l/m2 in 6 Std. -
Fr, 15.10. 8:00 0.3 l/m2 in 12 Std. -
Fr, 15.10. 2:00 0.3 l/m2 in 6 Std. Regen
Do, 14.10. 20:00 8 l/m2 in 12 Std. Regen
Do, 14.10. 14:00 6 l/m2 in 6 Std. Schnee, Regen
Ortszeit Niederschlagsmenge Niederschlagsart
Sa, 16.10. 11:00 0.0 l/m2 in 1 Std. -
Sa, 16.10. 10:40 keine Meldung -
Sa, 16.10. 10:30 0.0 l/m2 in 1 Std. -
Sa, 16.10. 10:20 keine Meldung -
Sa, 16.10. 10:10 keine Meldung -
Sa, 16.10. 10:00 0.0 l/m2 in 1 Std. -
Sa, 16.10. 9:50 keine Meldung -
Sa, 16.10. 9:30 0.0 l/m2 in 1 Std. -
Sa, 16.10. 9:00 0.0 l/m2 in 1 Std. -
Sa, 16.10. 8:30 0.0 l/m2 in 1 Std. -
Sa, 16.10. 8:00 0.0 l/m2 in 1 Std. -
Ortszeit Stärke Spitze Richtung
km/h Bft. km/h Grad Sektor
Sa, 16.10. 8:00 4 1 14 340° N
Sa, 16.10. 2:00 4 1 18 300° NW
Fr, 15.10. 20:00 4 1 40 360° N
Fr, 15.10. 14:00 24 4 43 260° W
Fr, 15.10. 8:00 13 3 35 250° W
Fr, 15.10. 2:00 13 3 30 270° W
Do, 14.10. 20:00 7 2 24 270° W
Do, 14.10. 14:00 11 2 25 280° W
Ortszeit Stärke Spitze Richtung
km/h Bft. km/h Grad Sektor
Sa, 16.10. 11:00 4 1 11 230° SW
Sa, 16.10. 10:40 4 1 - 180° S
Sa, 16.10. 10:30 0 0 7 - -
Sa, 16.10. 10:20 0 0 - 250° W
Sa, 16.10. 10:10 2 1 - 320° NW
Sa, 16.10. 10:00 4 1 7 260° W
Sa, 16.10. 9:50 4 1 - 260° W
Sa, 16.10. 9:30 4 1 7 140° SO
Sa, 16.10. 9:00 2 1 7 100° O
Sa, 16.10. 8:30 0 0 7 - -
Sa, 16.10. 8:00 4 1 7 340° N
Ortszeit Untergrenze Bedeckung Gattung
total tief tief mittel hoch
Sa, 16.10. 8:00 180 m 8/8 8/8 - - -
Sa, 16.10. 2:00 60 m 7/8 7/8 - - -
Fr, 15.10. 20:00 150 m 8/8 8/8 - - -
Fr, 15.10. 14:00 1500 m 7/8 5/8 - - -
Fr, 15.10. 8:00 90 m 8/8 8/8 - - -
Fr, 15.10. 2:00 30 m 8/8 8/8 - - -
Do, 14.10. 20:00 <30 m 8/8 0/8 - - -
Do, 14.10. 14:00 60 m 8/8 8/8 - - -
Ortszeit Bedeckungsgrad in Achtel und Wolkenuntergrenze
Sa, 16.10. 11:00 3(330m) 6(9000m)
Sa, 16.10. 10:40 2(360m) 5(9000m)
Sa, 16.10. 10:30 1(300m) 2(9000m)
Sa, 16.10. 10:20 1(300m) 2(9000m)
Sa, 16.10. 10:10 1(270m) 2(9000m)
Sa, 16.10. 10:00 3(240m)
Sa, 16.10. 9:50 3(240m)
Sa, 16.10. 9:30 5(240m)
Sa, 16.10. 9:00 4(300m) 5(9000m)
Sa, 16.10. 8:30 3(210m) 7(360m)
Sa, 16.10. 8:00 8(180m)
Ortszeit Stationsdruck (hPa) Tendenz (hPa in 3 Std.)
Sa, 16.10. 8:00 917 + 0,6
Sa, 16.10. 2:00 916 + 0,5
Fr, 15.10. 20:00 914 + 1,9
Fr, 15.10. 14:00 912 - 0,7
Fr, 15.10. 8:00 913 - 1,2
Fr, 15.10. 2:00 916 - 1,3
Do, 14.10. 20:00 918 - 0,1
Do, 14.10. 14:00 919 - 0,2
Ortszeit Stationsdruck (hPa) Tendenz (hPa in 3 Std.)
Sa, 16.10. 11:00 918 + 0,9
Sa, 16.10. 10:40 918 keine Meldung
Sa, 16.10. 10:30 918 + 1,2
Sa, 16.10. 10:20 918 keine Meldung
Sa, 16.10. 10:10 918 keine Meldung
Sa, 16.10. 10:00 918 + 1,2
Sa, 16.10. 9:50 918 keine Meldung
Sa, 16.10. 9:30 917 + 1,1
Sa, 16.10. 9:00 917 + 0,9
Sa, 16.10. 8:30 917 + 0,8
Sa, 16.10. 8:00 917 + 0,6
Ortszeit Schneehöhe (cm)
Sa, 16.10. 8:00 0
Sa, 16.10. 2:00 0
Fr, 15.10. 20:00 0
Fr, 15.10. 14:00 0
Fr, 15.10. 8:00 0
Fr, 15.10. 2:00 0
Do, 14.10. 20:00 0
Do, 14.10. 14:00 0
Ortszeit Schneehöhe (cm)
Sa, 16.10. 11:00 0
Sa, 16.10. 10:40 0
Sa, 16.10. 10:30 0
Sa, 16.10. 10:20 0
Sa, 16.10. 10:10 0
Sa, 16.10. 10:00 0
Sa, 16.10. 9:50 0
Sa, 16.10. 9:30 0
Sa, 16.10. 9:00 0
Sa, 16.10. 8:30 0
Sa, 16.10. 8:00 0
Link zu dieser Seite / Seite empfehlen

Das Wetter in ...